This is the latest recevied weather packets stored in our database for station/object NW0017. If no packets are shown the sender has not sent any weather packets the latest 10 day(s).
| Time | Temp. | Humidity | Pressure | Rain* | Wind** | Luminosity | Snow |
|---|---|---|---|---|---|---|---|
| 1776920005 | 33.89° C | 67% | 1006.4 hPa | 0 mm | - | 880 W/m² | - |
| 1776919945 | 33.89° C | 66% | 1006.4 hPa | 0 mm | - | 880 W/m² | - |
| 1776919885 | 34.44° C | 66% | 1006.4 hPa | 0 mm | - | 878 W/m² | - |
| 1776919825 | 34.44° C | 66% | 1006.4 hPa | 0 mm | - | 877 W/m² | - |
| 1776919765 | 34.44° C | 64% | 1006.4 hPa | 0 mm | - | 882 W/m² | - |
| 1776919705 | 34.44° C | 61% | 1006.4 hPa | 0 mm | - | 862 W/m² | - |
| 1776919644 | 35° C | 63% | 1006.4 hPa | 0 mm | - | 863 W/m² | - |
| 1776919585 | 34.44° C | 63% | 1006.4 hPa | 0 mm | - | 872 W/m² | - |
| 1776919525 | 34.44° C | 61% | 1006.4 hPa | 0 mm | - | 875 W/m² | - |
| 1776919465 | 35° C | 60% | 1006.4 hPa | 0 mm | - | 873 W/m² | - |
| 1776919404 | 35° C | 60% | 1006.4 hPa | 0 mm | - | 864 W/m² | - |
| 1776919345 | 35.56° C | 60% | 1006.4 hPa | 0 mm | - | 866 W/m² | - |
| 1776919296 | 35.56° C | 58% | 1006.4 hPa | 0 mm | - | 867 W/m² | - |
| 1776919225 | 35.56° C | 56% | 1006.4 hPa | 0 mm | - | 866 W/m² | - |
| 1776919164 | 35.56° C | 51% | 1006.4 hPa | 0 mm | - | 858 W/m² | - |
| 1776919105 | 35.56° C | 51% | 1006.4 hPa | 0 mm | - | 826 W/m² | - |
| 1776919045 | 35.56° C | 51% | 1006.4 hPa | 0 mm | - | 800 W/m² | - |
| 1776918985 | 35.56° C | 51% | 1006.4 hPa | 0 mm | - | 806 W/m² | - |
| 1776918924 | 35.56° C | 51% | 1006.5 hPa | 0 mm | - | 835 W/m² | - |
| 1776918865 | 35.56° C | 51% | 1006.5 hPa | 0 mm | - | 857 W/m² | - |
| 1776918804 | 35.56° C | 51% | 1006.5 hPa | 0 mm | - | 855 W/m² | - |
| 1776918745 | 35.56° C | 52% | 1006.5 hPa | 0 mm | - | 863 W/m² | - |
| 1776918684 | 35.56° C | 51% | 1006.5 hPa | 0 mm | - | 874 W/m² | - |
| 1776918625 | 35.56° C | 52% | 1006.5 hPa | 0 mm | - | 865 W/m² | - |
| 1776918564 | 35° C | 52% | 1006.6 hPa | 0 mm | - | 866 W/m² | - |
* Rain latest hour (hover to see other rain measurements)
** Current wind speed in m/s (hover to see current wind gust speed)